Probability
0 0 0 0 0 0 0 0 0 0 0 0 0 0 0 0 0 0 3 0 0 0 0 0 0 0 0 0 0 0 0 0 0 0 0 3 3 10
0 0 0 0 0 0 0 0 0 0 0 0 0 0 0 0 0 0 3 0 0 0 0 0 0 0 0 0 0 0 0 0 0 0 0 0 0 0
0 0 0 0 0 0 0 0 0 0 0 0 0 0 0 0 0 0 0 0 3 0 0 0 0 0 0 0 0 0 0 0 0 0 0 0 0 0
0 0 0 0 0 0 0 0 0 0 0 0 0 0 0 0 0 0 0 0 0 0 0 0 0 0 0 0 0 0 0 0 0 0 0 0 0 0
0 0 0 0 0 0 0 0 0 0 0 0 0 0 0 0 0 0 0 0 0 0 0 0 0 0 0 0 0 0 0 0 0 0 0 0 0 0
0 0 0 0 0 0 0 0 0 0 0 0 0 0 0 0 0 0 0 0 0 0 0 0 0 0 0 0 0 0 0 0 0 0 0 0 0 0
0 0 0 0 0 0 0 0 0 0 0 0 0 0 0 0 0 0 0 0 0 0 0 0 0 0 0 0 0 0 0 0 0 0 0 0 0 0
0 0 0 0 0 0 0 0 0 0 0 0 0 0 0 0 0 0 0 0 0 0 0 0 0 0 0 0 0 0 0 0 0 0 0 0 0 0
0 0 0 0 0 0 0 0 0 0 0 0 0 0 0 0 0 0 0 0 0 0 0 0 0 0 0 0 0 0 0 0 0 0 0 0 0 0
0 0 0 0 0 0 0 0 0 0 0 0 0 0 0 0 0 0 0 0 0 0 0 0 0 0 0 0 0 0 0 0 0 0 0 0 0 0
0 0 0 0 0 0 0 0 0 0 0 0 0 0 0 0 0 0 0 0 0 0 0 0 0 0 0 0 0 0 0 0 0 0 0 0 0 0
0 0 0 0 0 0 0 0 0 0 0 0 0 0 0 0 0 0 0 0 0 0 0 0 0 0 0 0 0 0 0 0 0 0 0 0 0 0
0 0 0 0 0 0 0 0 0 0 0 0 0 0 0 0 0 0 0 0 0 0 0 0 0 0 0 0 0 0 0 0 0 0 0 0 0 0
0 0 0 0 0 0 0 0 0 0 0 0 0 0 0 0 0 0 0 0 0 0 0 0 0 0 0 0 0 0 0 0 0 0 0 0 0 0
0 0 0 0 0 0 0 0 0 0 0 0 0 0 0 0 0 0 0 0 0 0 0 0 0 0 0 0 0 0 0 0 0 0 0 0 0 0
0 0 0 0 0 0 0 0 0 0 0 0 0 0 0 0 0 0 0 0 0 0 0 0 0 0 0 0 0 0 0 0 0 0 0 0 0 0
0 0 0 0 0 0 0 0 0 0 0 0 0 0 0 0 0 0 0 0 0 0 0 0 0 0 0 0 0 0 0 0 0 0 0 0 0 0
0 0 0 0 0 0 0 0 0 0 0 0 0 0 0 0 0 0 0 0 0 0 0 0 0 0 0 0 0 0 0 0 0 0 0 0 0 0
0 0 0 0 0 0 0 0 0 0 0 0 0 0 0 0 0 0 0 0 0 0 0 0 0 0 0 0 0 0 0 0 0 0 0 0 0 0
0 0 0 0 0 0 0 0 0 0 0 0 0 0 0 0 0 0 0 0 0 0 0 0 0 0 0 0 0 0 0 0 0 0 0 0 0 0
0 0 0 0 0 0 0 0 0 0 0 0 0 0 0 0 0 0 0 0 0 0 0 0 0 0 0 0 0 0 0 0 0 0 0 0 0 0
0 0 0 0 0 0 0 0 0 0 0 0 0 0 0 0 0 0 0 0 0 0 0 0 0 0 0 0 0 0 0 0 0 0 0 0 0 0
0 0 0 0 0 0 0 0 0 0 0 0 0 0 0 0 0 0 0 0 0 0 0 0 0 0 0 0 0 0 0 0 0 0 0 0 0 0
Height
5872 5873 5874 5874 5875 5875 5875 5875 5875 5875 5874 5874 5874 5873 5872 5872 5871 5870 5869 5868 5867 5866 5865 5863 5862 5861 5860 5859 5858 5857 5856 5855 5854 5853 5852 5851 5850 5849
5868 5869 5870 5870 5871 5871 5871 5871 5870 5870 5869 5869 5869 5868 5867 5866 5865 5864 5863 5862 5861 5859 5858 5857 5855 5854 5852 5851 5850 5849 5848 5846 5845 5844 5843 5842 5842 5841
5863 5864 5865 5865 5866 5866 5866 5865 5865 5865 5864 5864 5863 5862 5861 5860 5859 5857 5856 5855 5853 5851 5850 5848 5847 5845 5844 5842 5841 5839 5838 5837 5835 5834 5833 5832 5831 5831
5859 5859 5860 5860 5860 5860 5860 5860 5859 5859 5858 5857 5856 5855 5854 5853 5851 5850 5848 5846 5845 5843 5841 5839 5837 5836 5834 5832 5831 5829 5827 5826 5824 5823 5822 5821 5820 5819
5853 5854 5854 5854 5854 5854 5854 5854 5853 5852 5851 5850 5849 5847 5846 5845 5843 5841 5839 5837 5835 5833 5831 5829 5827 5825 5823 5821 5819 5818 5816 5814 5812 5811 5809 5808 5807 5806
5847 5848 5848 5848 5848 5847 5847 5846 5845 5844 5843 5842 5841 5839 5838 5836 5834 5832 5830 5827 5825 5823 5820 5818 5815 5813 5811 5809 5807 5805 5802 5800 5799 5797 5795 5794 5793 5791
5841 5841 5841 5841 5841 5840 5839 5838 5837 5836 5835 5833 5832 5830 5828 5826 5824 5822 5819 5817 5814 5811 5808 5805 5803 5800 5797 5795 5792 5790 5787 5785 5783 5782 5780 5778 5777 5776
5835 5834 5834 5834 5833 5832 5831 5830 5829 5827 5826 5824 5821 5819 5817 5815 5812 5810 5808 5805 5802 5800 5796 5793 5789 5786 5783 5780 5777 5774 5771 5768 5766 5764 5762 5760 5759 5758
5827 5827 5827 5826 5825 5824 5823 5821 5819 5817 5815 5813 5811 5808 5806 5803 5800 5797 5794 5791 5788 5785 5782 5779 5774 5770 5766 5762 5759 5756 5753 5750 5747 5745 5743 5741 5739 5738
5820 5820 5819 5818 5816 5815 5813 5811 5809 5807 5805 5802 5799 5796 5793 5790 5787 5784 5781 5777 5773 5770 5766 5763 5759 5754 5749 5744 5740 5736 5733 5730 5727 5725 5722 5720 5718 5716
5813 5811 5810 5809 5807 5805 5803 5801 5798 5796 5793 5790 5787 5783 5780 5776 5773 5769 5766 5762 5758 5753 5749 5745 5741 5737 5733 5727 5721 5716 5713 5709 5706 5703 5700 5698 5696 5694
5804 5802 5801 5799 5797 5795 5792 5790 5787 5784 5781 5777 5773 5770 5766 5762 5758 5753 5749 5745 5740 5736 5731 5727 5722 5717 5715 5709 5702 5696 5692 5688 5685 5682 5679 5676 5674 5672
5795 5794 5792 5789 5787 5784 5781 5778 5775 5771 5767 5764 5760 5755 5751 5746 5742 5737 5732 5727 5723 5718 5713 5708 5703 5698 5693 5690 5684 5677 5672 5669 5665 5662 5659 5656 5652 5650
5786 5784 5781 5779 5776 5773 5769 5766 5762 5758 5754 5750 5745 5741 5736 5731 5726 5720 5715 5709 5704 5699 5694 5689 5684 5678 5674 5669 5665 5660 5653 5649 5646 5643 5639 5636 5633 5630
5776 5773 5770 5767 5764 5761 5757 5753 5749 5745 5740 5736 5731 5726 5720 5715 5709 5703 5697 5691 5685 5679 5674 5669 5665 5659 5654 5649 5646 5641 5637 5632 5627 5624 5621 5617 5614 5612
5765 5762 5759 5755 5752 5748 5744 5740 5735 5731 5726 5721 5715 5710 5704 5698 5693 5687 5681 5674 5668 5661 5655 5651 5646 5641 5636 5631 5626 5622 5618 5614 5611 5607 5603 5600 5596 5594
5754 5751 5747 5744 5740 5735 5731 5726 5721 5716 5711 5705 5699 5694 5687 5681 5675 5669 5664 5658 5652 5646 5640 5634 5629 5624 5619 5614 5609 5605 5601 5597 5593 5590 5588 5585 5581 5578
5743 5739 5735 5731 5727 5722 5717 5712 5706 5701 5695 5689 5683 5677 5671 5665 5659 5653 5647 5642 5636 5630 5625 5620 5615 5610 5604 5598 5593 5589 5586 5582 5579 5576 5573 5572 5569 5566
5731 5727 5723 5718 5713 5708 5703 5697 5692 5686 5680 5674 5668 5662 5655 5649 5644 5638 5632 5626 5621 5615 5609 5605 5601 5596 5592 5587 5581 5575 5572 5569 5566 5564 5561 5559 5557 5555
5719 5715 5710 5705 5700 5694 5689 5683 5677 5671 5665 5658 5652 5646 5641 5635 5629 5623 5618 5612 5607 5601 5596 5591 5587 5583 5578 5575 5571 5565 5560 5557 5555 5553 5551 5549 5547 5545
5708 5703 5698 5692 5687 5681 5675 5669 5663 5657 5651 5645 5639 5632 5627 5621 5615 5610 5604 5599 5594 5589 5584 5579 5575 5571 5567 5563 5559 5555 5551 5547 5544 5543 5542 5540 5539 5537
5695 5690 5685 5679 5674 5668 5662 5656 5650 5644 5638 5632 5626 5620 5614 5608 5603 5597 5592 5587 5582 5577 5573 5568 5564 5560 5557 5553 5549 5546 5543 5539 5536 5533 5532 5531 5530 5529
5683 5678 5672 5667 5661 5656 5650 5644 5638 5632 5626 5620 5614 5608 5603 5597 5592 5586 5581 5576 5571 5566 5562 5558 5554 5550 5547 5544 5541 5538 5535 5532 5530 5527 5525 5523 5521 5520
Wind_Speed
17 17 17 17 17 17 17 17 18 18 19 19 19 19 19 20 21 22 22 23 24 24 25 26 26 27 28 28 29 29 30 30 30 30 30 31 31 31
19 19 18 18 19 19 20 20 20 21 21 22 22 22 23 24 24 25 26 26 27 28 29 30 30 31 32 32 33 33 34 35 35 35 35 35 35 35
20 20 20 20 20 21 22 22 23 23 24 24 25 26 26 27 28 28 29 30 31 32 33 33 34 34 35 36 36 37 37 38 39 40 40 40 40 40
22 22 22 23 23 23 23 24 24 24 26 27 28 29 29 30 31 32 33 34 35 35 36 37 37 38 39 39 40 40 41 42 42 42 43 43 43 43
23 24 24 24 25 25 25 26 26 27 28 29 30 31 32 33 34 35 36 36 37 38 39 40 41 42 43 44 44 45 45 46 46 47 47 47 47 48
24 24 25 25 25 26 27 28 28 29 30 31 32 33 35 36 36 37 38 39 40 41 42 43 44 45 46 47 48 48 49 50 51 51 51 52 52 52
25 25 25 26 27 28 29 30 31 31 32 34 35 36 37 38 39 40 41 42 43 44 45 47 48 49 50 51 52 52 53 54 54 55 56 56 57 57
25 26 27 28 29 30 31 32 34 35 36 37 38 39 40 41 41 43 44 45 46 47 49 50 52 53 54 55 56 56 57 58 59 59 60 60 61 61
27 28 28 30 32 33 34 36 37 38 39 40 41 42 43 44 45 46 47 49 50 51 52 53 55 56 58 59 59 60 60 61 62 62 63 64 64 64
29 30 31 33 34 35 36 37 38 40 41 42 44 45 46 48 49 51 52 53 55 55 56 57 58 58 60 61 62 63 63 64 64 64 65 65 65 66
30 32 34 34 35 37 38 39 41 42 43 45 47 48 49 51 52 54 55 56 57 58 59 60 60 61 61 63 64 65 66 66 66 65 65 65 65 65
32 35 36 37 38 39 40 42 44 45 47 48 50 52 53 54 55 56 57 58 59 60 61 62 63 64 63 63 64 64 65 65 65 65 64 64 64 64
34 35 37 38 39 40 42 44 46 48 50 51 52 53 54 56 57 58 60 61 62 62 63 63 64 64 64 63 62 63 63 63 63 63 63 63 63 63
36 36 38 39 41 42 44 47 48 50 51 52 53 55 56 58 59 61 61 62 63 64 64 64 64 63 62 62 61 61 61 61 61 60 60 60 60 59
38 39 40 43 44 45 46 48 49 51 52 54 55 57 59 60 61 61 62 62 63 64 63 63 62 61 61 60 59 58 58 57 57 57 55 55 55 54
39 40 42 44 45 46 47 49 51 53 54 56 57 59 60 60 61 61 61 60 60 61 61 60 59 58 57 57 57 56 56 54 53 52 50 50 49 49
41 42 43 45 46 48 49 51 53 54 56 57 58 58 59 59 59 59 58 58 57 57 56 56 55 55 54 54 53 52 51 50 48 47 45 43 43 43
43 43 45 46 47 49 51 53 54 56 57 57 57 57 57 56 56 56 55 55 54 53 52 51 50 49 49 48 48 47 45 43 42 41 39 37 36 37
43 44 45 47 49 50 52 53 54 54 55 55 55 55 54 53 53 53 52 51 50 49 48 47 46 45 43 41 41 41 40 38 37 35 34 33 32 32
43 45 47 48 49 50 51 51 52 52 52 52 52 51 51 50 50 49 49 47 46 45 44 43 42 40 38 37 35 36 36 35 33 31 30 29 29 28
44 45 46 47 48 49 49 49 49 49 49 49 49 48 48 47 46 46 44 43 42 41 40 39 37 36 35 34 33 32 33 32 31 29 27 26 26 26
44 45 46 46 46 46 46 46 47 47 46 46 45 45 44 44 43 42 41 40 39 38 37 36 35 34 33 32 30 29 29 29 29 28 26 24 23 23
43 43 44 44 44 44 44 44 44 43 43 42 42 41 41 40 39 39 38 38 37 36 35 34 33 32 31 30 29 28 27 26 26 25 25 24 23 22
Wind_Direction
245 249 253 255 257 261 264 267 269 272 274 275 276 277 278 279 280 280 281 282 283 284 284 284 284 283 282 281 281 280 280 279 279 278 277 276 275 275
248 250 254 257 259 262 265 267 270 272 275 276 277 278 280 280 280 281 281 282 283 283 283 283 283 283 282 281 281 281 280 279 279 278 276 275 274 273
250 252 255 258 261 264 266 267 269 271 273 276 278 279 280 281 281 281 282 282 282 282 281 281 281 281 281 281 281 281 280 280 279 278 277 275 274 273
254 255 258 261 263 265 267 269 271 272 274 275 277 279 279 279 280 281 282 282 282 281 281 281 281 281 281 281 280 279 279 278 278 278 277 275 275 274
258 259 261 264 266 267 269 270 271 273 275 276 277 279 279 280 280 281 281 281 281 281 281 281 281 281 281 280 280 280 279 278 277 276 275 275 274 273
260 263 264 266 267 269 271 272 273 275 276 277 277 279 281 281 281 281 282 282 282 282 282 282 282 282 281 281 281 280 279 279 278 277 276 275 274 273
262 264 266 268 270 272 273 274 276 278 278 279 279 281 282 282 281 281 282 283 283 284 283 283 283 283 282 282 281 280 280 279 278 277 277 275 274 273
264 266 268 269 271 273 275 277 279 280 281 281 281 282 283 283 283 283 283 283 283 283 284 284 284 284 283 283 282 281 280 280 279 278 277 277 276 274
267 268 268 270 272 275 277 279 281 282 282 283 283 284 285 285 285 285 285 285 284 284 284 284 284 285 285 284 283 283 282 281 280 279 278 277 276 274
270 270 271 273 275 278 279 281 282 283 283 284 284 285 286 286 286 286 286 286 286 285 285 285 285 285 285 285 284 284 283 282 282 280 279 277 276 274
275 275 275 276 278 279 280 281 282 283 284 285 285 286 287 287 287 288 288 288 287 287 287 287 286 286 286 285 285 284 284 283 282 281 280 279 277 276
278 279 279 280 280 280 281 283 284 284 285 286 287 288 288 289 289 289 289 289 289 288 288 288 288 287 286 286 285 285 284 284 283 282 281 280 279 278
279 281 281 281 281 283 284 286 286 287 287 288 289 290 290 290 290 290 289 289 290 290 289 289 289 289 288 287 286 285 285 284 283 283 282 281 281 280
281 282 283 283 284 285 286 287 287 287 289 289 289 289 290 290 291 291 291 291 291 291 291 291 291 290 289 288 287 286 286 285 284 283 282 282 281 280
282 284 285 285 285 286 288 289 289 290 291 291 290 291 291 292 292 292 293 293 293 293 293 293 292 292 291 290 289 287 286 285 285 285 284 283 282 281
283 284 286 287 288 289 290 291 291 292 292 292 292 293 293 294 294 294 295 295 295 295 295 295 294 293 292 292 291 290 288 287 285 285 285 285 284 282
285 286 287 288 289 291 291 292 293 293 294 294 295 295 296 296 296 296 296 296 296 295 295 295 296 295 294 294 293 292 291 289 287 286 286 285 284 283
288 289 290 291 292 293 294 295 295 296 297 297 297 297 297 297 298 298 298 298 297 296 296 295 296 296 296 296 295 294 293 291 289 288 286 286 284 283
292 292 293 294 295 296 297 298 298 298 298 299 299 299 299 299 299 299 299 299 299 298 297 297 297 297 297 296 296 295 294 293 291 289 288 287 285 283
294 295 296 297 298 299 299 300 300 300 301 301 302 301 301 301 301 301 301 300 300 299 299 298 299 299 299 298 297 296 295 294 292 290 290 287 286 286
297 298 299 300 301 302 303 303 303 304 304 304 304 304 304 304 304 304 304 303 302 301 300 300 300 301 301 301 300 299 297 295 294 292 290 287 285 286
300 301 302 303 304 305 306 307 307 307 308 308 307 307 307 307 306 306 305 305 304 303 301 301 300 301 302 302 302 301 299 296 296 295 293 291 287 284
303 304 305 306 307 308 309 309 310 310 310 310 311 310 310 310 309 309 308 307 306 305 303 301 301 301 302 302 301 301 300 298 296 294 295 295 294 290